Wind_Speed
54 53 53 53 52 51 50 49 49 48 48 47 46 44 43 42 41 39 39 38 36 35 35 34 34 33 32 31 30 30 30 29 29 29 28 28 28 29 30 31 31 31 32
56 56 56 56 55 54 53 52 51 51 50 50 49 48 46 45 44 42 41 40 39 37 37 36 35 35 34 33 32 32 31 30 30 30 30 30 30 31 31 32 32 32 33
57 58 58 58 58 57 57 55 54 53 53 52 52 51 50 48 47 45 43 43 42 40 39 38 37 36 36 35 34 33 32 32 31 31 31 31 32 32 33 33 33 34 34
59 59 60 60 60 59 59 58 57 56 55 55 54 53 52 51 50 48 46 45 45 43 42 40 39 38 37 36 35 34 34 33 33 32 32 32 33 33 34 34 34 35 36
58 59 60 60 61 60 60 59 59 59 58 58 57 55 54 53 52 51 49 48 47 46 44 43 42 40 39 38 37 35 35 35 34 33 33 34 34 34 35 35 36 36 37
58 58 59 60 61 61 61 61 61 61 61 60 59 58 57 56 55 54 53 51 49 48 46 45 44 42 41 39 39 37 37 36 35 35 35 35 35 35 36 37 37 38 38
57 57 59 60 60 61 62 63 63 62 62 61 61 61 59 58 57 56 55 53 52 50 49 48 46 45 43 41 40 39 39 38 37 37 36 36 36 37 37 37 38 39 39
56 57 58 59 60 61 62 63 63 63 62 62 62 62 61 59 58 57 56 55 53 52 51 49 48 47 45 43 43 41 41 41 40 38 37 37 38 38 38 38 39 40 40
56 56 56 57 58 59 61 62 63 63 62 62 61 62 61 60 59 58 58 57 55 54 53 51 50 49 47 44 44 43 42 41 40 40 38 38 38 39 39 39 40 40 40
57 57 56 57 58 58 59 60 61 61 61 62 61 62 62 61 61 59 58 57 56 56 54 54 52 50 48 46 45 44 43 41 41 41 39 38 39 40 40 40 41 41 41
56 56 56 56 56 57 57 58 59 59 59 60 60 60 61 61 60 59 57 56 56 55 55 53 53 51 49 48 46 45 44 43 41 40 39 39 41 41 41 42 41 40 41
55 55 55 55 56 56 56 57 57 57 58 58 58 59 59 59 58 57 56 55 55 55 55 53 53 52 50 49 47 45 45 43 42 42 40 40 42 41 41 42 41 41 41
54 55 55 55 55 56 56 56 55 56 57 57 55 56 58 58 57 56 56 55 54 54 55 54 52 51 49 49 48 46 45 43 43 43 42 40 41 41 41 42 41 41 41
51 53 53 54 54 54 54 54 54 55 56 56 54 53 55 56 56 54 54 54 54 54 53 52 51 50 50 49 48 47 46 44 43 44 43 42 41 41 42 42 41 41 42
51 51 52 51 52 52 52 53 53 53 55 55 53 52 52 52 53 53 53 54 53 52 50 49 49 48 49 48 47 47 46 45 45 45 44 43 42 42 42 42 41 42 42
49 50 49 50 50 50 50 51 51 52 53 54 53 51 49 50 51 52 53 52 52 50 49 47 47 47 47 47 46 46 47 46 45 43 43 41 41 41 41 41 42 42 42
47 49 49 49 49 49 48 48 48 49 51 53 53 51 49 49 50 51 52 51 50 50 49 47 47 46 45 46 45 45 46 46 44 43 42 41 41 41 41 42 42 42 42
45 46 46 47 47 47 47 47 47 47 49 51 52 50 48 48 49 50 51 50 49 48 47 46 46 45 45 45 44 44 44 45 45 43 41 41 41 40 41 41 41 41 41
42 42 43 43 44 44 44 44 46 46 47 48 48 47 46 47 47 49 50 49 47 47 46 45 46 45 44 43 43 44 43 43 42 41 41 41 40 39 39 40 40 40 41
40 40 40 40 40 41 41 41 43 44 45 46 45 45 45 45 46 47 47 47 46 44 45 45 45 44 43 42 42 42 41 41 40 40 42 41 39 39 39 39 39 40 40
38 37 36 35 36 37 38 39 40 41 42 44 44 43 43 42 43 44 44 45 45 43 43 45 45 43 42 42 42 40 40 39 40 40 40 39 39 38 38 38 40 40 40
35 34 33 33 33 34 35 35 36 37 40 42 42 40 40 40 41 43 43 43 43 41 41 44 44 42 40 40 39 38 38 38 39 39 37 36 36 37 37 38 38 39 41
32 31 30 29 29 30 31 33 34 36 38 39 40 38 38 40 40 40 40 41 41 40 40 42 43 42 41 39 38 37 36 37 37 36 35 34 34 35 35 36 37 38 39
28 28 26 27 27 27 29 30 32 34 35 36 37 36 37 38 38 38 39 40 40 39 40 40 40 40 41 40 38 36 35 35 34 34 34 33 33 33 35 36 37 38 39
25 24 24 24 24 25 27 28 30 31 33 34 34 35 37 36 36 36 37 38 38 38 38 37 38 39 40 39 36 35 34 33 31 31 32 31 31 32 33 35 37 38 38
23 22 21 20 21 21 23 26 28 30 31 31 32 33 34 34 34 35 35 35 35 36 36 36 37 37 38 37 35 34 33 31 30 29 30 30 30 32 33 35 37 37 38
Wind_Direction
258 257 257 256 257 256 256 256 257 258 258 258 258 257 258 259 260 261 260 260 261 261 262 264 266 268 268 269 273 274 275 275 278 281 282 284 288 292 296 299 301 303 305
258 257 257 257 257 257 255 255 256 257 257 258 258 258 258 257 258 259 260 259 259 260 261 262 264 265 267 268 270 273 275 276 277 279 281 283 286 291 295 298 299 302 304
259 258 257 257 257 257 256 255 256 256 257 257 257 257 257 257 257 256 258 259 259 259 260 260 262 263 265 267 269 271 272 274 276 278 281 283 286 289 293 296 298 301 304
261 260 258 257 256 256 256 255 256 257 257 257 257 256 256 256 257 256 256 257 258 258 258 259 260 262 264 265 268 270 271 273 275 277 279 282 286 289 291 294 297 300 303
262 260 259 258 256 256 256 255 255 256 257 258 257 257 257 257 256 256 255 256 256 256 256 257 258 260 262 265 267 268 270 273 274 276 279 281 284 288 290 293 296 299 302
263 261 260 259 258 257 257 256 256 256 257 257 257 257 257 257 255 256 255 254 255 256 256 256 257 258 260 263 265 267 270 272 273 276 278 280 282 286 290 292 295 298 301
264 263 262 261 260 259 258 257 256 255 256 256 256 256 256 256 255 255 255 253 253 255 255 255 256 256 258 260 263 265 269 271 272 274 277 279 283 286 289 292 294 296 299
266 265 264 264 263 261 260 258 256 255 255 255 255 255 254 253 254 254 253 253 253 253 253 255 255 255 257 258 261 263 267 268 270 272 275 278 283 285 287 290 294 296 298
266 266 266 265 264 263 261 259 256 255 254 254 254 255 254 253 253 252 252 252 252 252 252 252 253 254 255 256 258 261 265 268 269 271 273 277 281 284 286 289 293 296 298
267 268 267 266 265 263 261 259 256 255 254 254 254 254 254 254 253 250 250 250 251 250 250 251 251 252 253 255 257 259 262 267 271 272 273 277 280 283 285 289 292 295 298
269 267 266 266 265 264 262 260 257 255 255 255 254 253 253 252 251 250 249 248 249 249 249 250 250 251 252 253 255 258 262 264 268 271 272 275 278 282 285 288 291 294 297
270 268 268 266 265 264 262 259 258 255 253 253 253 253 251 251 250 250 248 247 246 247 247 247 249 250 252 252 254 257 260 261 265 269 271 274 279 281 284 288 290 292 295
271 269 268 266 265 264 262 259 257 254 252 251 252 251 250 250 249 248 247 246 246 245 246 246 248 248 250 252 253 255 257 259 265 267 269 273 278 280 284 287 287 290 294
273 271 270 266 265 263 262 259 257 253 251 250 250 250 250 248 248 247 246 246 246 245 245 245 246 247 248 251 252 253 255 257 263 265 267 271 275 279 283 285 286 289 294
275 273 270 267 266 264 262 259 256 253 250 247 247 248 249 248 246 246 245 245 246 245 244 244 245 247 248 250 251 252 254 257 260 264 266 270 273 277 280 283 285 289 294
275 273 271 269 267 265 263 259 256 252 248 245 244 245 247 248 245 244 244 244 244 244 242 243 244 245 247 249 250 252 253 256 258 261 265 269 273 277 280 282 285 289 294
276 274 271 269 267 264 261 258 255 251 246 244 243 244 246 245 243 243 242 242 243 243 242 242 242 242 244 247 248 251 253 255 257 260 264 269 273 276 278 282 284 289 294
279 276 273 269 266 262 259 257 252 250 246 244 242 243 244 244 242 241 241 241 241 241 241 240 240 241 243 245 247 249 252 254 256 259 263 268 272 275 280 283 285 289 294
280 277 274 269 265 261 257 255 251 248 246 243 241 241 242 242 240 240 239 239 239 240 240 239 239 240 242 244 247 249 251 254 256 259 262 267 271 274 279 282 287 291 294
281 278 274 269 263 258 256 255 250 247 244 240 239 239 240 240 239 237 236 237 238 239 239 238 238 239 241 244 246 249 251 252 255 259 262 266 270 274 278 282 286 291 295
282 279 274 269 263 258 255 253 249 246 241 236 236 237 237 236 235 234 234 236 237 239 239 237 237 238 241 243 244 247 251 252 255 259 262 265 270 273 278 282 285 292 297
283 279 274 268 263 257 253 251 247 243 239 234 232 232 233 233 232 231 232 235 236 237 237 236 236 238 241 243 244 247 250 252 256 258 262 267 272 275 280 284 287 292 298
285 280 275 268 263 255 250 247 243 238 233 230 229 230 232 231 230 230 232 233 233 235 235 235 236 238 239 241 243 246 249 254 256 257 262 268 272 276 280 284 289 294 298
287 282 275 269 263 254 249 245 239 233 227 226 228 229 228 227 227 228 229 229 229 231 233 234 237 238 238 240 242 245 249 253 255 257 262 268 272 277 282 286 291 296 299
286 281 277 272 264 255 248 241 236 231 227 228 229 229 226 226 226 227 227 226 228 230 231 234 236 237 237 238 242 244 247 250 253 259 263 267 273 278 283 288 292 297 300
285 280 278 272 263 253 245 238 235 230 228 228 226 225 224 224 226 226 227 229 231 232 233 235 237 238 239 240 243 244 247 247 252 259 265 269 275 280 285 289 294 298 302
Height
5763 5765 5767 5769 5771 5773 5775 5777 5779 5781 5783 5785 5787 5789 5791 5793 5795 5796 5798 5800 5801 5802 5803 5804 5805 5806 5806 5806 5806 5806 5806 5805 5805 5804 5803 5802 5800 5798 5796 5794 5791 5789 5786
5750 5752 5754 5756 5759 5761 5763 5765 5768 5770 5773 5775 5777 5779 5782 5784 5786 5788 5790 5791 5793 5795 5796 5797 5798 5799 5799 5799 5800 5800 5800 5799 5799 5798 5797 5795 5794 5792 5790 5788 5785 5782 5779
5735 5738 5740 5742 5745 5747 5750 5752 5755 5758 5761 5764 5766 5769 5771 5773 5776 5778 5781 5782 5784 5786 5788 5789 5790 5791 5792 5792 5793 5793 5793 5793 5792 5791 5790 5789 5788 5786 5784 5781 5779 5776 5773
5720 5722 5724 5727 5729 5732 5735 5738 5741 5744 5748 5751 5754 5757 5760 5762 5765 5768 5770 5773 5774 5777 5779 5780 5782 5783 5784 5785 5785 5785 5785 5785 5785 5784 5784 5783 5781 5779 5777 5775 5772 5769 5766
5704 5706 5708 5710 5713 5716 5720 5723 5727 5730 5734 5737 5740 5743 5746 5750 5753 5756 5759 5762 5764 5767 5769 5771 5773 5775 5776 5777 5778 5778 5778 5778 5777 5777 5776 5775 5774 5772 5770 5768 5765 5762 5759
5687 5689 5692 5695 5697 5700 5704 5707 5711 5715 5718 5722 5725 5729 5733 5736 5740 5743 5747 5750 5753 5756 5758 5761 5763 5765 5767 5768 5770 5770 5770 5770 5770 5769 5768 5768 5766 5765 5763 5760 5758 5755 5751
5672 5674 5676 5679 5681 5684 5687 5691 5694 5698 5701 5705 5709 5713 5717 5721 5725 5730 5733 5737 5741 5744 5747 5750 5753 5756 5758 5759 5761 5761 5762 5762 5761 5761 5761 5760 5759 5757 5755 5753 5750 5747 5743
5657 5658 5661 5663 5665 5667 5670 5673 5676 5680 5684 5688 5692 5695 5700 5706 5710 5714 5719 5723 5728 5732 5735 5739 5742 5745 5748 5749 5752 5753 5753 5753 5753 5753 5752 5752 5751 5749 5747 5745 5742 5739 5735
5642 5643 5644 5646 5648 5650 5653 5656 5659 5663 5667 5671 5674 5679 5684 5690 5695 5700 5704 5709 5714 5718 5723 5726 5730 5733 5736 5739 5741 5743 5744 5744 5744 5744 5744 5743 5742 5741 5739 5737 5734 5731 5727
5627 5628 5628 5630 5632 5633 5636 5639 5642 5645 5650 5654 5658 5662 5668 5673 5679 5685 5690 5694 5699 5704 5709 5713 5717 5721 5725 5728 5731 5733 5734 5734 5735 5735 5735 5734 5734 5732 5730 5728 5725 5722 5719
5612 5612 5612 5613 5615 5617 5619 5622 5625 5629 5633 5637 5642 5646 5651 5656 5661 5667 5674 5680 5685 5690 5695 5700 5704 5709 5713 5716 5720 5723 5724 5725 5726 5726 5726 5726 5725 5723 5721 5719 5717 5714 5710
5596 5596 5596 5598 5599 5601 5603 5605 5608 5612 5616 5621 5625 5630 5635 5641 5647 5651 5658 5664 5670 5676 5681 5686 5691 5696 5700 5704 5708 5712 5714 5715 5716 5717 5717 5716 5715 5714 5712 5710 5708 5705 5701
5580 5580 5581 5582 5583 5585 5586 5589 5592 5596 5600 5604 5609 5615 5620 5626 5632 5636 5642 5648 5654 5661 5666 5672 5678 5683 5688 5692 5696 5700 5703 5705 5706 5707 5707 5707 5707 5705 5703 5701 5699 5696 5693
5565 5565 5565 5565 5566 5568 5570 5573 5576 5580 5584 5589 5594 5600 5605 5611 5617 5622 5628 5633 5639 5646 5653 5660 5665 5670 5675 5680 5685 5688 5691 5694 5696 5697 5697 5698 5697 5696 5694 5692 5690 5687 5684
5549 5549 5549 5549 5550 5552 5554 5557 5560 5564 5569 5574 5580 5586 5591 5597 5603 5608 5614 5620 5626 5633 5641 5647 5653 5658 5663 5668 5673 5677 5681 5684 5685 5687 5687 5688 5688 5687 5685 5683 5680 5678 5674
5534 5533 5533 5533 5535 5536 5538 5541 5544 5549 5554 5560 5565 5571 5577 5583 5589 5595 5601 5607 5613 5620 5628 5635 5640 5646 5651 5656 5661 5665 5669 5672 5674 5676 5677 5678 5678 5677 5676 5673 5671 5668 5665
5518 5517 5517 5518 5519 5521 5523 5526 5529 5534 5539 5545 5551 5557 5564 5569 5575 5582 5588 5594 5601 5607 5615 5623 5628 5634 5639 5645 5650 5654 5658 5661 5664 5666 5667 5668 5668 5667 5666 5664 5662 5659 5656
5504 5502 5502 5502 5504 5506 5508 5511 5515 5520 5525 5531 5538 5544 5551 5556 5563 5569 5576 5582 5589 5596 5603 5610 5617 5623 5628 5633 5639 5643 5647 5650 5653 5656 5658 5658 5658 5658 5656 5655 5652 5649 5646
5491 5489 5488 5488 5489 5491 5494 5497 5501 5507 5513 5519 5526 5532 5539 5544 5551 5557 5564 5571 5578 5585 5591 5598 5606 5613 5618 5623 5628 5632 5636 5640 5643 5646 5647 5648 5648 5648 5647 5646 5643 5640 5637
5479 5477 5475 5475 5476 5478 5482 5485 5488 5494 5500 5507 5514 5521 5527 5533 5540 5546 5553 5561 5568 5574 5580 5588 5595 5602 5607 5613 5617 5622 5626 5630 5633 5635 5637 5638 5639 5638 5638 5636 5635 5632 5628
5468 5466 5464 5464 5464 5467 5470 5473 5476 5481 5488 5496 5503 5510 5517 5523 5530 5536 5543 5551 5557 5564 5570 5577 5585 5591 5597 5602 5608 5612 5616 5620 5623 5625 5627 5629 5630 5630 5628 5627 5625 5622 5619
5459 5456 5455 5454 5455 5458 5460 5462 5466 5471 5478 5486 5494 5501 5507 5513 5520 5527 5534 5541 5548 5554 5561 5568 5574 5581 5588 5593 5598 5602 5606 5610 5614 5617 5618 5619 5620 5620 5619 5618 5616 5613 5610
5450 5449 5447 5447 5448 5450 5451 5454 5458 5462 5469 5477 5484 5491 5498 5505 5511 5518 5525 5531 5539 5545 5552 5560 5566 5572 5579 5584 5589 5593 5597 5601 5604 5607 5608 5610 5611 5611 5610 5608 5606 5604 5600
5443 5441 5440 5440 5441 5443 5445 5447 5450 5455 5462 5469 5476 5483 5490 5497 5503 5510 5517 5524 5531 5538 5545 5551 5558 5564 5570 5574 5579 5584 5588 5591 5594 5597 5599 5601 5602 5602 5601 5599 5597 5595 5591
5437 5436 5435 5434 5435 5436 5438 5441 5444 5449 5455 5462 5469 5476 5482 5489 5496 5502 5509 5516 5523 5530 5536 5542 5549 5555 5560 5566 5570 5575 5579 5582 5585 5589 5591 5593 5593 5593 5592 5591 5589 5585 5582
5432 5431 5430 5430 5430 5431 5433 5435 5439 5443 5449 5455 5462 5469 5475 5482 5489 5495 5502 5509 5516 5523 5528 5534 5540 5546 5551 5557 5562 5566 5571 5574 5578 5581 5583 5584 5585 5584 5584 5582 5580 5576 5572